"2016-02-02 00:00:00",1337691,13.11,141.7,7.081,1.245,2.72,98.1451,-5.425,-4.122,93.1,0,109.3,13.47,-4.69,103.7
"2016-02-02 00:00:30",1337692,13.54,140.7,6.333,1.255,2.895,98.13489,-5.451,-4.14,93.1,0,109.3,13.47,-4.72,102.7
"2016-02-02 00:01:00",1337693,13.57,142,6.127,1.227,3.061,98.13006,-5.463,-4.138,93.2,0,109.3,13.47,-4.73,104.0
"2016-02-02 00:01:30",1337694,13.26,140.3,6.199,1.254,2.876,98.12893,-5.466,-4.166,93.2,0,109.3,13.47,-4.73,102.3
"2016-02-02 00:02:00",1337695,12.88,141,6.599,1.195,2.982,98.12835,-5.468,-4.151,93.2,0,109.3,13.47,-4.73,103.0
"2016-02-02 00:02:30",1337696,13.24,142.2,6.433,1.26,2.748,98.12496,-5.476,-4.141,93.2,0,109.3,13.47,-4.74,104.2
"2016-02-02 00:03:00",1337697,12.71,141.5,7.084,1.353,2.512,98.12211,-5.483,-4.193,93.2,0,109.3,13.47,-4.75,103.5
"2016-02-02 00:03:30",1337698,12.84,139.8,8.17,1.565,3.133,98.11899,-5.491,-4.166,93.3,0,109.3,13.47,-4.76,101.8
"2016-02-02 00:04:00",1337699,13.08,141.9,6.474,1.255,2.976,98.11785,-5.494,-4.173,93.3,0,109.3,13.47,-4.76,103.9
"2016-02-02 00:04:30",1337700,13.08,143,6.8,1.184,2.672,98.11443,-5.503,-4.189,93.3,0,109.3,13.47,-4.77,105.0
"2016-02-02 00:05:00",1337701,13.36,143.5,6.073,1.271,2.856,98.11359,-5.505,-4.174,93.3,0,109.3,13.46,-4.77,105.5
"2016-02-02 00:05:30",1337702,13.28,139.6,6.963,1.266,2.76,98.11331,-5.506,-4.197,93.3,0,109.3,13.46,-4.77,101.6
"2016-02-02 00:06:00",1337703,13.17,143.7,6.249,1.238,2.98,98.11442,-5.503,-4.239,93.3,0,109.3,13.47,-4.77,105.7
"2016-02-02 00:06:30",1337704,13.48,143.7,6.668,1.2,2.968,98.11414,-5.504,-4.206,93.3,0,109.3,13.46,-4.77,105.7
"2016-02-02 00:07:00",1337705,13.43,143.1,6.691,1.288,2.966,98.11303,-5.507,-4.182,93.3,0,109.3,13.46,-4.77,105.1
"2016-02-02 00:07:30",1337706,13.29,144.9,6.553,1.218,2.717,98.11331,-5.506,-4.214,93.3,0,109.3,13.46,-4.77,106.9
"2016-02-02 00:08:00",1337707,13.1,142.2,6.386,1.15,2.646,98.11247,-5.508,-4.218,93.3,0,109.3,13.46,-4.78,104.2
"2016-02-02 00:08:30",1337708,13.8,143.4,7.293,1.33,2.855,98.11331,-5.506,-4.225,93.4,0,109.3,13.46,-4.77,105.4
"2016-02-02 00:09:00",1337709,13.62,141,7.217,1.303,2.916,98.11189,-5.51,-4.212,93.4,0,109.3,13.46,-4.78,103.0
"2016-02-02 00:09:30",1337710,13.62,143.3,6.312,1.315,2.916,98.10928,-5.516,-4.2,93.4,0,109.3,13.47,-4.78,105.3
"2016-02-02 00:10:00",1337711,13.67,143.3,6.892,1.221,2.968,98.0994,-5.541,-4.234,93.4,0,109.3,13.47,-4.81,105.3
"2016-02-02 00:10:30",1337712,13.54,145.1,6.125,1.163,2.784,98.10303,-5.532,-4.204,93.4,0,109.3,13.47,-4.80,107.1
"2016-02-02 00:11:00",1337713,13.89,141.4,6.197,1.361,2.954,98.10048,-5.539,-4.253,93.4,0,109.3,13.47,-4.81,103.4
"2016-02-02 00:11:30",1337714,13.39,143.4,6.67,1.272,2.759,98.10411,-5.529,-4.24,93.4,0,109.3,13.47,-4.80,105.4
"2016-02-02 00:12:00",1337715,13.58,146.2,6.305,1.286,2.642,98.10326,-5.531,-4.216,93.5,0,109.3,13.47,-4.80,108.2
"2016-02-02 00:12:30",1337716,13.77,147.9,6.816,1.266,2.654,98.10464,-5.528,-4.25,93.5,0,109.3,13.48,-4.80,109.9
"2016-02-02 00:13:00",1337717,13.78,146.9,6.785,1.259,2.85,98.10464,-5.528,-4.24,93.5,0,109.3,13.48,-4.80,108.9
"2016-02-02 00:13:30",1337718,13.62,145.9,7.164,1.265,2.928,98.10464,-5.528,-4.25,93.5,0,109.3,13.47,-4.80,107.9
"2016-02-02 00:14:00",1337719,13.27,146.6,7.322,1.273,2.742,98.10325,-5.532,-4.254,93.5,0,109.3,13.48,-4.80,108.6
"2016-02-02 00:14:30",1337720,13.34,147.6,6.355,1.339,2.768,98.10239,-5.534,-4.242,93.5,0,109.3,13.48,-4.80,109.6
"2016-02-02 00:15:00",1337721,14.23,146.5,6.595,1.161,2.73,98.10181,-5.535,-4.24,93.5,0,109.3,13.48,-4.80,108.5
"2016-02-02 00:15:30",1337722,14.1,148.4,6.842,1.24,2.827,98.10323,-5.532,-4.268,93.6,0,109.3,13.48,-4.80,110.4
"2016-02-02 00:16:00",1337723,14.1,147.4,6.069,1.196,3.003,98.10152,-5.536,-4.26,93.6,0,109.3,13.48,-4.80,109.4
"2016-02-02 00:16:30",1337724,13.6,146.2,5.903,1.179,2.857,98.09985,-5.54,-4.265,93.6,0,109.3,13.48,-4.81,108.2
"2016-02-02 00:17:00",1337725,13.62,146.7,6.519,1.364,2.518,98.09528,-5.552,-4.241,93.6,0,109.3,13.48,-4.82,108.7
"2016-02-02 00:17:30",1337726,14.65,146.9,6.557,1.25,2.573,98.09389,-5.555,-4.263,93.6,0,109.3,13.48,-4.82,108.9
"2016-02-02 00:18:00",1337727,14.34,147.4,6.338,1.277,2.863,98.08992,-5.565,-4.268,93.6,0,109.3,13.48,-4.83,109.4
"2016-02-02 00:18:30",1337728,14.42,149.3,6.218,1.216,2.8,98.0882,-5.57,-4.289,93.6,0,109.3,13.48,-4.84,111.3
"2016-02-02 00:19:00",1337729,14.37,148.8,6.372,1.27,3.051,98.0868,-5.573,-4.265,93.6,0,109.3,13.48,-4.84,110.8
"2016-02-02 00:19:30",1337730,14.19,148,6.514,1.237,2.879,98.08736,-5.572,-4.274,93.6,0,109.3,13.48,-4.84,110.0
"2016-02-02 00:20:00",1337731,14.59,147.3,7.004,1.35,2.461,98.08875,-5.568,-4.291,93.6,0,109.3,13.48,-4.84,109.3
"2016-02-02 00:20:30",1337732,14.52,147.6,6.327,1.171,2.899,98.08875,-5.568,-4.319,93.7,0,109.3,13.48,-4.84,109.6
"2016-02-02 00:21:00",1337733,13.57,147.5,6.014,1.324,2.759,98.08842,-5.569,-4.288,93.7,0,109.3,13.48,-4.84,109.5
"2016-02-02 00:21:30",1337734,14.29,149.7,6.086,1.246,2.53,98.07908,-5.593,-4.301,93.7,0,109.3,13.48,-4.86,111.7
"2016-02-02 00:22:00",1337735,14.4,149.7,6.571,1.16,2.775,98.07537,-5.602,-4.297,93.7,0,109.3,13.47,-4.87,111.7
"2016-02-02 00:22:30",1337736,14.25,147.9,6.431,1.282,2.486,98.07589,-5.601,-4.29,93.7,0,109.3,13.47,-4.87,109.9
"2016-02-02 00:23:00",1337737,14.04,147.5,7.172,1.3,2.871,98.07504,-5.603,-4.343,93.7,0,109.3,13.47,-4.87,109.5
"2016-02-02 00:23:30",1337738,14.17,149.7,6.297,1.265,2.715,98.07561,-5.602,-4.324,93.7,0,109.3,13.47,-4.87,111.7
"2016-02-02 00:24:00",1337739,14.11,148.7,6.417,1.253,2.577,98.0742,-5.605,-4.314,93.7,0,109.3,13.47,-4.87,110.7
"2016-02-02 00:24:30",1337740,14.41,148.7,6.223,1.233,2.468,98.07307,-5.608,-4.318,93.7,0,109.3,13.47,-4.88,110.7
"2016-02-02 00:25:00",1337741,14.4,149.6,5.702,1.255,2.744,98.0739,-5.606,-4.32,93.7,0,109.3,13.47,-4.87,111.6
"2016-02-02 00:25:30",1337742,14.5,149.1,6.451,1.177,2.505,98.07192,-5.611,-4.342,93.7,0,109.3,13.47,-4.88,111.1
"2016-02-02 00:26:00",1337743,14.56,148.7,6.19,1.182,2.726,98.06824,-5.621,-4.329,93.8,0,109.3,13.47,-4.89,110.7
"2016-02-02 00:26:30",1337744,14.42,148.6,6.259,1.242,2.452,98.06711,-5.624,-4.322,93.8,0,109.3,13.47,-4.89,110.6
"2016-02-02 00:27:00",1337745,14.35,146.2,7.066,1.158,2.215,98.06539,-5.628,-4.348,93.7,0,109.3,13.48,-4.90,108.2
"2016-02-02 00:27:30",1337746,13.77,146.9,7.376,1.461,2.824,98.06396,-5.631,-4.339,93.8,0,109.3,13.48,-4.90,108.9
"2016-02-02 00:28:00",1337747,13.68,146.8,5.88,1.204,2.648,98.06141,-5.638,-4.326,93.8,0,109.3,13.48,-4.91,108.8
"2016-02-02 00:28:30",1337748,14.06,146.3,6.347,1.146,2.391,98.06084,-5.639,-4.376,93.8,0,109.3,13.48,-4.91,108.3
"2016-02-02 00:29:00",1337749,13.74,146.6,6.201,1.276,2.629,98.06028,-5.641,-4.335,93.8,0,109.3,13.48,-4.91,108.6
"2016-02-02 00:29:30",1337750,13.67,146.1,6.152,1.26,2.428,98.06055,-5.64,-4.348,93.8,0,109.3,13.48,-4.91,108.1
"2016-02-02 00:30:00",1337751,14.14,146.3,7.358,1.191,2.637,98.06055,-5.64,-4.377,93.8,0,109.3,13.48,-4.91,108.3
"2016-02-02 00:30:30",1337752,13.49,150.3,6.546,1.204,2.854,98.06055,-5.64,-4.358,93.8,0,109.3,13.48,-4.91,112.3
"2016-02-02 00:31:00",1337753,13.57,146.9,6.278,1.383,2.777,98.06055,-5.64,-4.334,93.8,0,109.3,13.48,-4.91,108.9
"2016-02-02 00:31:30",1337754,14.02,147,6.14,1.303,2.443,98.06055,-5.64,-4.365,93.8,0,109.3,13.48,-4.91,109.0
"2016-02-02 00:32:00",1337755,13.76,147.7,6.639,1.195,2.463,98.06055,-5.64,-4.373,93.8,0,109.3,13.48,-4.91,109.7
"2016-02-02 00:32:30",1337756,12.95,144.1,6.275,1.212,2.513,98.06055,-5.64,-4.381,93.9,0,109.3,13.48,-4.91,106.1
"2016-02-02 00:33:00",1337757,14.18,148.1,6.252,1.228,2.569,98.06055,-5.64,-4.363,93.9,0,109.3,13.48,-4.91,110.1
"2016-02-02 00:33:30",1337758,14.57,148.1,6.482,1.257,2.613,98.06055,-5.64,-4.362,93.9,0,109.3,13.48,-4.91,110.1
"2016-02-02 00:34:00",1337759,13.71,148.1,7.017,1.36,2.643,98.06055,-5.64,-4.372,93.9,0,109.3,13.48,-4.91,110.1
"2016-02-02 00:34:30",1337760,12.67,147.7,6.818,1.398,2.454,98.06055,-5.64,-4.344,93.9,0,109.3,13.48,-4.91,109.7
"2016-02-02 00:35:00",1337761,12.44,147.9,6.501,1.215,2.6,98.06055,-5.64,-4.389,93.9,0,109.3,13.48,-4.91,109.9
"2016-02-02 00:35:30",1337762,13.47,147.1,7.033,1.414,2.471,98.06055,-5.64,-4.378,93.9,0,109.3,13.47,-4.91,109.1
"2016-02-02 00:36:00",1337763,12.81,147.4,6.695,1.347,2.32,98.06055,-5.64,-4.353,93.9,0,109.3,13.45,-4.91,109.4
"2016-02-02 00:36:30",1337764,12.47,145.2,7.504,1.252,2.328,98.06084,-5.639,-4.356,93.9,0,109.3,13.44,-4.91,107.2
"2016-02-02 00:37:00",1337765,12.54,150,6.839,1.323,2.537,98.06112,-5.639,-4.393,93.9,0,109.3,13.44,-4.91,112.0
"2016-02-02 00:37:30",1337766,12.61,148.3,6.524,1.341,2.668,98.06055,-5.64,-4.384,93.9,0,109.3,13.43,-4.91,110.3
"2016-02-02 00:38:00",1337767,13.91,146.4,7.074,1.501,2.579,98.06055,-5.64,-4.377,94,0,109.3,13.42,-4.91,108.4
"2016-02-02 00:38:30",1337768,13.51,145.6,5.805,1.353,2.678,98.06055,-5.64,-4.374,93.9,0,109.3,13.42,-4.91,107.6
"2016-02-02 00:39:00",1337769,13.02,145.5,6.639,1.32,2.333,98.06055,-5.64,-4.377,93.9,0,109.3,13.41,-4.91,107.5
"2016-02-02 00:39:30",1337770,12.38,145.7,7.668,1.393,2.64,98.06084,-5.639,-4.383,94,0,109.3,13.4,-4.91,107.7
"2016-02-02 00:40:00",1337771,12.53,144.3,6.33,1.33,2.643,98.06306,-5.634,-4.351,94,0,109.3,13.39,-4.90,106.3
"2016-02-02 00:40:30",1337772,12.91,146.3,8.45,1.167,2.622,98.06223,-5.636,-4.385,94,0,109.3,13.38,-4.90,108.3
"2016-02-02 00:41:00",1337773,13.18,147.9,6.751,1.419,2.247,98.06251,-5.635,-4.362,94,0,109.3,13.38,-4.90,109.9
"2016-02-02 00:41:30",1337774,12.44,145.5,7.039,1.264,2.262,98.06167,-5.637,-4.385,94,0,109.3,13.37,-4.91,107.5
"2016-02-02 00:42:00",1337775,12.58,143.6,6.848,1.202,2.34,98.06251,-5.635,-4.383,94,0,109.3,13.37,-4.90,105.6
"2016-02-02 00:42:30",1337776,12.57,147.3,7.508,1.342,2.32,98.06361,-5.632,-4.375,94,0,109.3,13.36,-4.90,109.3
"2016-02-02 00:43:00",1337777,12,147.9,8.13,1.3,2.665,98.06361,-5.632,-4.379,94,0,109.3,13.35,-4.90,109.9
"2016-02-02 00:43:30",1337778,12.35,145.4,6.216,1.305,2.739,98.06418,-5.631,-4.349,94,0,109.3,13.35,-4.90,107.4
"2016-02-02 00:44:00",1337779,13.13,143.8,7.225,1.268,2.323,98.06306,-5.634,-4.377,94,0,109.3,13.35,-4.90,105.8
"2016-02-02 00:44:30",1337780,12.85,144.7,6.67,1.289,2.315,98.06445,-5.63,-4.364,94,0,109.3,13.35,-4.90,106.7
"2016-02-02 00:45:00",1337781,13.56,143.8,6.497,1.23,2.285,98.06445,-5.63,-4.372,94,0,109.3,13.35,-4.90,105.8
"2016-02-02 00:45:30",1337782,13.39,142.3,6.81,1.205,2.239,98.06445,-5.63,-4.389,94,0,109.3,13.34,-4.90,104.3
"2016-02-02 00:46:00",1337783,13.44,143.7,6.731,1.199,2.553,98.06418,-5.631,-4.382,94,0,109.3,13.34,-4.90,105.7
"2016-02-02 00:46:30",1337784,13.63,144.4,6.306,1.334,2.55,98.06584,-5.627,-4.372,94,0,109.3,13.33,-4.89,106.4
"2016-02-02 00:47:00",1337785,13.75,145.3,5.959,1.271,2.886,98.06863,-5.62,-4.366,94.1,0,109.3,13.33,-4.89,107.3
"2016-02-02 00:47:30",1337786,13.88,146.2,6.268,1.31,2.669,98.0664,-5.625,-4.348,94.1,0,109.3,13.33,-4.89,108.2
"2016-02-02 00:48:00",1337787,13.44,144.3,7.611,1.431,2.421,98.06696,-5.624,-4.387,94,0,109.3,13.32,-4.89,106.3
"2016-02-02 00:48:30",1337788,13.64,145.5,6.707,1.288,2.679,98.06584,-5.627,-4.382,94,0,109.3,13.32,-4.89,107.5
"2016-02-02 00:49:00",1337789,13.13,145.2,6.886,1.314,2.761,98.06584,-5.627,-4.391,94.1,0,109.3,13.32,-4.89,107.2
"2016-02-02 00:49:30",1337790,12.56,144.6,7.727,1.295,2.485,98.06223,-5.636,-4.373,94.1,0,109.3,13.32,-4.90,106.6
"2016-02-02 00:50:00",1337791,13.15,144.1,6.367,1.339,2.825,98.06223,-5.636,-4.365,94.1,0,109.3,13.31,-4.90,106.1
"2016-02-02 00:50:30",1337792,13.52,144.7,6.623,1.253,2.282,98.06139,-5.638,-4.386,94.1,0,109.3,13.31,-4.91,106.7
"2016-02-02 00:51:00",1337793,13.36,144.8,6.959,1.277,2.508,98.06054,-5.64,-4.402,94,0,109.3,13.3,-4.91,106.8
"2016-02-02 00:51:30",1337794,13.74,144.3,7.195,1.425,2.659,98.06025,-5.641,-4.384,94.1,0,109.3,13.3,-4.91,106.3
"2016-02-02 00:52:00",1337795,13.63,147.6,6.906,1.843,2.558,98.06136,-5.638,-4.388,94.1,0,109.3,13.3,-4.91,109.6
"2016-02-02 00:52:30",1337796,13.61,144,7.017,1.384,2.488,98.05856,-5.645,-4.421,94.1,0,109.3,13.3,-4.91,106.0
"2016-02-02 00:53:00",1337797,14.08,143.8,6.327,1.316,2.598,98.0594,-5.643,-4.378,94.1,0,109.3,13.3,-4.91,105.8
"2016-02-02 00:53:30",1337798,12.83,143.2,6.391,1.361,2.384,98.06026,-5.641,-4.389,94.1,0,109.3,13.29,-4.91,105.2
"2016-02-02 00:54:00",1337799,13.95,143.9,6.809,1.346,2.793,98.05999,-5.642,-4.418,94.1,0,109.3,13.29,-4.91,105.9
"2016-02-02 00:54:30",1337800,13.09,148.7,6.381,1.227,2.702,98.06083,-5.639,-4.392,94.1,0,109.3,13.29,-4.91,110.7
"2016-02-02 00:55:00",1337801,11.99,140.7,6.942,1.37,2.135,98.06055,-5.64,-4.421,94.1,0,109.3,13.29,-4.91,102.7
"2016-02-02 00:55:30",1337802,11.84,143.7,6.569,1.318,2.646,98.06055,-5.64,-4.398,94.1,0,109.3,13.29,-4.91,105.7
"2016-02-02 00:56:00",1337803,12.4,141.8,6.94,1.356,2.712,98.06055,-5.64,-4.391,94.1,0,109.3,13.28,-4.91,103.8
"2016-02-02 00:56:30",1337804,12.56,140.7,6.598,1.27,2.739,98.06055,-5.64,-4.384,94.1,0,109.3,13.28,-4.91,102.7
"2016-02-02 00:57:00",1337805,12.22,139.1,6.843,1.308,2.783,98.06055,-5.64,-4.386,94.2,0,109.3,13.27,-4.91,101.1
"2016-02-02 00:57:30",1337806,12.4,138.2,6.565,1.402,2.67,98.06055,-5.64,-4.401,94.1,0,109.3,13.27,-4.91,100.2
"2016-02-02 00:58:00",1337807,12.36,137.1,6.683,1.403,2.474,98.06055,-5.64,-4.412,94.1,0,109.3,13.28,-4.91,99.1
"2016-02-02 00:58:30",1337808,12.98,137.1,6.525,1.357,2.918,98.06055,-5.64,-4.414,94.2,0,109.3,13.27,-4.91,99.1
"2016-02-02 00:59:00",1337809,13.19,138.4,6.238,1.299,3.054,98.06169,-5.637,-4.382,94.2,0,109.3,13.27,-4.91,100.4
"2016-02-02 00:59:30",1337810,13.15,139.6,6.874,1.275,2.841,98.06453,-5.63,-4.357,94.2,0,109.3,13.27,-4.90,101.6
"2016-02-02 01:00:00",1337811,13.52,137.2,6.943,1.25,2.732,98.06567,-5.627,-4.386,94.2,0,109.3,13.27,-4.89,99.2
"2016-02-02 01:00:30",1337812,13.08,136.1,6.886,1.308,2.924,98.07105,-5.613,-4.38,94.2,0,109.3,13.27,-4.88,98.1
"2016-02-02 01:01:00",1337813,13.21,136.1,6.572,1.352,2.997,98.07218,-5.611,-4.397,94.2,0,109.3,13.27,-4.88,98.1
"2016-02-02 01:01:30",1337814,13.2,135.6,6.36,1.343,3.022,98.07558,-5.602,-4.379,94.2,0,109.3,13.28,-4.87,97.6
"2016-02-02 01:02:00",1337815,13.32,135.4,6.627,1.329,3.007,98.07558,-5.602,-4.369,94.2,0,109.3,13.28,-4.87,97.4
"2016-02-02 01:02:30",1337816,13.63,135.5,6.052,1.255,2.673,98.077,-5.598,-4.362,94.2,0,109.3,13.28,-4.87,97.5
"2016-02-02 01:03:00",1337817,13.86,134.6,6.375,1.281,2.724,98.07757,-5.597,-4.356,94.2,0,109.3,13.28,-4.86,96.6
"2016-02-02 01:03:30",1337818,13.93,133.9,6.787,1.313,2.882,98.07814,-5.595,-4.368,94.2,0,109.3,13.28,-4.86,95.9
"2016-02-02 01:04:00",1337819,14.01,134.2,6.58,1.254,3.087,98.08298,-5.583,-4.353,94.3,0,109.3,13.28,-4.85,96.2
"2016-02-02 01:04:30",1337820,13.67,132.7,6.864,1.315,2.842,98.09122,-5.562,-4.36,94.3,0,109.3,13.28,-4.83,94.7
"2016-02-02 01:05:00",1337821,13.73,131.7,6.878,1.312,2.771,98.09319,-5.557,-4.351,94.3,0,109.3,13.28,-4.82,93.7
"2016-02-02 01:05:30",1337822,13.75,132.4,6.541,1.266,2.85,98.09153,-5.561,-4.335,94.3,0,109.3,13.28,-4.83,94.4
"2016-02-02 01:06:00",1337823,14.12,130.9,6.667,1.209,2.998,98.0918,-5.561,-4.341,94.3,0,109.3,13.28,-4.83,92.9
"2016-02-02 01:06:30",1337824,13.78,129.9,6.783,1.302,2.909,98.09182,-5.561,-4.348,94.3,0,109.3,13.27,-4.83,91.9
"2016-02-02 01:07:00",1337825,13.97,130.8,6.48,1.321,2.846,98.09521,-5.552,-4.34,94.3,0,109.3,13.28,-4.82,92.8
"2016-02-02 01:07:30",1337826,13.57,129.1,6.428,1.322,2.946,98.09608,-5.55,-4.335,94.3,0,109.3,13.28,-4.82,91.1
"2016-02-02 01:08:00",1337827,13.33,127.7,6.701,1.243,2.865,98.10059,-5.538,-4.346,94.3,0,109.3,13.27,-4.81,89.7
"2016-02-02 01:08:30",1337828,13.36,126.8,6.402,1.284,3.129,98.09921,-5.542,-4.326,94.3,0,109.3,13.27,-4.81,88.8
"2016-02-02 01:09:00",1337829,13.35,126.9,6.317,1.247,3.253,98.10006,-5.54,-4.319,94.3,0,109.3,13.27,-4.81,88.9
"2016-02-02 01:09:30",1337830,13.24,125,6.828,1.3,2.7,98.10093,-5.537,-4.334,94.3,0,109.3,13.27,-4.80,87.0
"2016-02-02 01:10:00",1337831,13.1,124.7,6.708,1.296,2.905,98.10065,-5.538,-4.32,94.3,0,109.3,13.27,-4.81,86.7
"2016-02-02 01:10:30",1337832,12.8,125.7,7.117,1.333,2.842,98.10148,-5.536,-4.325,94.3,0,109.3,13.27,-4.80,87.7
"2016-02-02 01:11:00",1337833,12.78,123.3,6.839,1.413,3.145,98.09925,-5.542,-4.324,94.4,0,109.3,13.27,-4.81,85.3
"2016-02-02 01:11:30",1337834,12.71,121.5,6.153,1.291,2.917,98.09871,-5.543,-4.302,94.4,0,109.3,13.27,-4.81,83.5
"2016-02-02 01:12:00",1337835,12.7,122.1,6.749,1.308,2.603,98.09756,-5.546,-4.321,94.3,0,109.3,13.27,-4.81,84.1
"2016-02-02 01:12:30",1337836,12.53,121.5,6.753,1.314,2.636,98.09641,-5.549,-4.321,94.3,0,109.3,13.27,-4.82,83.5
"2016-02-02 01:13:00",1337837,11.49,121.6,7.115,1.249,2.744,98.09615,-5.55,-4.328,94.3,0,109.3,13.27,-4.82,83.6
"2016-02-02 01:13:30",1337838,11.09,124.6,7.22,1.269,2.632,98.09557,-5.551,-4.337,94.3,0,109.3,13.27,-4.82,86.6
"2016-02-02 01:14:00",1337839,11.07,124.4,7.321,1.552,2.825,98.09304,-5.557,-4.313,94.4,0,109.3,13.26,-4.83,86.4
"2016-02-02 01:14:30",1337840,10.59,122.4,6.401,1.378,2.275,98.09444,-5.554,-4.312,94.3,0,109.3,13.26,-4.82,84.4
"2016-02-02 01:15:00",1337841,9.56,119.4,7.101,1.281,2.159,98.09332,-5.557,-4.334,94.3,0,109.3,13.26,-4.82,81.4
"2016-02-02 01:15:30",1337842,10.35,122.8,8.89,1.459,2.325,98.09219,-5.56,-4.32,94.3,0,109.3,13.26,-4.83,84.8
"2016-02-02 01:16:00",1337843,9.33,123.6,7.696,1.355,2.363,98.08963,-5.566,-4.32,94.3,0,109.3,13.26,-4.83,85.6
"2016-02-02 01:16:30",1337844,10.36,120.6,7.732,1.422,2.109,98.08877,-5.568,-4.333,94.3,0,109.3,13.26,-4.84,82.6
"2016-02-02 01:17:00",1337845,10.98,121.4,7.192,1.167,2.392,98.08652,-5.574,-4.323,94.4,0,109.3,13.26,-4.84,83.4
"2016-02-02 01:17:30",1337846,10.21,117,6.43,1.282,2.266,98.08791,-5.571,-4.306,94.3,0,109.3,13.26,-4.84,79.0
"2016-02-02 01:18:00",1337847,10.8,121.8,6.999,1.32,2.387,98.08707,-5.573,-4.359,94.3,0,109.3,13.27,-4.84,83.8
"2016-02-02 01:18:30",1337848,11.34,124,6.356,1.491,2.281,98.08791,-5.571,-4.329,94.3,0,109.3,13.27,-4.84,86.0
"2016-02-02 01:19:00",1337849,10.23,121.1,6.967,1.289,2.036,98.08025,-5.59,-4.349,94.3,0,109.3,13.27,-4.86,83.1
"2016-02-02 01:19:30",1337850,12.29,123.2,7.197,1.658,2.169,98.06867,-5.62,-4.342,94.3,0,109.3,13.27,-4.89,85.2
"2016-02-02 01:20:00",1337851,13.57,127.7,7.249,1.285,2.294,98.06098,-5.639,-4.345,94.3,0,109.3,13.27,-4.91,89.7
"2016-02-02 01:20:30",1337852,13.49,125.9,6.6,1.371,2.219,98.05049,-5.666,-4.36,94.3,0,109.3,13.26,-4.93,87.9
"2016-02-02 01:21:00",1337853,13.7,125.1,6.438,1.198,2.49,98.03374,-5.708,-4.399,94.3,0,109.3,13.26,-4.98,87.1
"2016-02-02 01:21:30",1337854,13.35,121.7,6.858,1.25,2.094,98.02016,-5.743,-4.442,94.2,0,109.3,13.26,-5.01,83.7
"2016-02-02 01:22:00",1337855,13.36,122.4,6.756,1.432,1.835,98.00061,-5.793,-4.48,94.2,0,109.3,13.26,-5.06,84.4
"2016-02-02 01:22:30",1337856,13.89,123,6.437,1.267,2.449,97.98586,-5.83,-4.493,94.2,0,109.3,13.26,-5.10,85.0
"2016-02-02 01:23:00",1337857,14.28,125.6,6.469,1.291,2.67,97.97369,-5.861,-4.497,94.1,0,109.3,13.25,-5.13,87.6
"2016-02-02 01:23:30",1337858,14.03,123.4,6.286,1.283,2.384,97.9547,-5.91,-4.532,94.1,0,109.3,13.26,-5.18,85.4
"2016-02-02 01:24:00",1337859,14.8,123.8,6.943,1.36,2.229,97.94589,-5.932,-4.574,94.1,0,109.3,13.25,-5.20,85.8
"2016-02-02 01:24:30",1337860,14.07,123.8,7.037,1.283,2.214,97.92802,-5.978,-4.608,94,0,109.3,13.25,-5.25,85.8
"2016-02-02 01:25:00",1337861,14.58,124.4,7.281,1.296,2.429,97.91614,-6.008,-4.659,94,0,109.3,13.25,-5.28,86.4
"2016-02-02 01:25:30",1337862,14.93,124.6,6.904,1.326,2.596,97.90678,-6.032,-4.689,94,0,109.2,13.25,-5.30,86.6
"2016-02-02 01:26:00",1337863,15.63,126.3,6.974,1.283,2.547,97.88947,-6.076,-4.709,94,0,109.3,13.26,-5.35,88.3
"2016-02-02 01:26:30",1337864,15.89,126.2,6.133,1.241,2.238,97.88183,-6.095,-4.74,94,0,109.3,13.26,-5.36,88.2
"2016-02-02 01:27:00",1337865,15.67,124.6,6.777,1.165,2.225,97.87617,-6.11,-4.78,94,0,109.3,13.26,-5.38,86.6
"2016-02-02 01:27:30",1337866,15.69,125.4,6.92,1.551,2.444,97.85438,-6.165,-4.788,93.9,0,109.3,13.26,-5.43,87.4
"2016-02-02 01:28:00",1337867,15.72,126.1,6.521,1.363,2.784,97.84504,-6.189,-4.83,94,0,109.3,13.26,-5.46,88.1
"2016-02-02 01:28:30",1337868,14.3,125.5,6.703,1.667,2.375,97.84615,-6.186,-4.842,93.9,0,109.3,13.26,-5.46,87.5
"2016-02-02 01:29:00",1337869,15.89,124.6,7.277,1.257,2.528,97.84048,-6.2,-4.881,93.9,0,109.3,13.26,-5.47,86.6
"2016-02-02 01:29:30",1337870,15.98,123.8,6.3,1.509,2.445,97.83051,-6.226,-4.855,93.9,0,109.3,13.25,-5.50,85.8
"2016-02-02 01:30:00",1337871,14.93,123.1,7.607,1.297,2.49,97.82825,-6.231,-4.899,93.9,0,109.3,13.25,-5.50,85.1
"2016-02-02 01:30:30",1337872,14.86,122.7,7.028,1.463,2.477,97.82262,-6.246,-4.94,93.9,0,109.3,13.25,-5.52,84.7
"2016-02-02 01:31:00",1337873,14.89,123.2,6.738,1.41,2.232,97.82198,-6.247,-4.941,93.9,0,109.3,13.25,-5.52,85.2
"2016-02-02 01:31:30",1337874,15.35,122.4,6.964,1.313,2.42,97.8141,-6.267,-4.97,93.9,0,109.4,13.25,-5.54,84.4
"2016-02-02 01:32:00",1337875,14.96,121.7,6.631,1.311,2.456,97.81296,-6.27,-4.969,94,0,109.3,13.25,-5.54,83.7
"2016-02-02 01:32:30",1337876,15.52,123.8,6.523,1.32,2.543,97.81351,-6.269,-4.955,94,0,109.3,13.25,-5.54,85.8
"2016-02-02 01:33:00",1337877,15.67,120.4,6.653,1.313,2.6,97.81351,-6.269,-4.998,94,0,109.3,13.25,-5.54,82.4
"2016-02-02 01:33:30",1337878,15.2,122.6,6.417,1.324,2.358,97.81323,-6.27,-5.011,93.9,0,109.3,13.25,-5.54,84.6
"2016-02-02 01:34:00",1337879,14.95,121.6,6.833,1.578,2.343,97.81211,-6.273,-5.024,94,0,109.3,13.25,-5.54,83.6
"2016-02-02 01:34:30",1337880,15.06,120.7,7.627,1.345,2.303,97.80704,-6.285,-5.032,94,0,109.3,13.25,-5.56,82.7
"2016-02-02 01:35:00",1337881,15.67,122.1,6.191,1.268,2.806,97.80161,-6.299,-5.04,94,0,109.3,13.25,-5.57,84.1
"2016-02-02 01:35:30",1337882,15.33,120.5,6.29,1.432,2.636,97.79121,-6.326,-5.016,94,0,109.3,13.26,-5.60,82.5
"2016-02-02 01:36:00",1337883,15.13,120.6,6.37,1.389,1.982,97.7915,-6.325,-5.062,94,0,109.3,13.26,-5.60,82.6
"2016-02-02 01:36:30",1337884,14.73,119.8,6.471,1.235,2.184,97.78837,-6.333,-5.064,94,0,109.3,13.26,-5.60,81.8
"2016-02-02 01:37:00",1337885,14.46,117.9,6.483,1.322,2.401,97.78748,-6.335,-5.06,94,0,109.3,13.26,-5.61,79.9
"2016-02-02 01:37:30",1337886,14.73,117.3,6.731,1.429,2.424,97.78551,-6.34,-5.07,94,0,109.3,13.26,-5.61,79.3
"2016-02-02 01:38:00",1337887,15.24,118,6.526,1.344,2.651,97.78048,-6.353,-5.065,94,0,109.3,13.26,-5.62,80.0
"2016-02-02 01:38:30",1337888,15.54,118.4,5.985,1.247,2.299,97.77818,-6.359,-5.05,94,0,109.3,13.26,-5.63,80.4
"2016-02-02 01:39:00",1337889,15.6,117.6,6.716,1.239,2.204,97.77311,-6.372,-5.101,93.9,0,109.3,13.26,-5.64,79.6
"2016-02-02 01:39:30",1337890,15.14,118.3,6.673,1.302,2.41,97.77311,-6.372,-5.098,94,0,109.3,13.26,-5.64,80.3
"2016-02-02 01:40:00",1337891,14.43,116.6,6.542,1.287,2.609,97.77339,-6.371,-5.099,94,0,109.3,13.26,-5.64,78.6
"2016-02-02 01:40:30",1337892,14.46,115.8,6.79,1.242,2.168,97.77505,-6.367,-5.133,94,0,109.3,13.26,-5.64,77.8
"2016-02-02 01:41:00",1337893,13.94,113.3,6.522,1.27,2.491,97.77339,-6.371,-5.127,94,0,109.3,13.26,-5.64,75.3
"2016-02-02 01:41:30",1337894,13.99,114.8,6.294,1.331,2.207,97.77588,-6.365,-5.091,94,0,109.3,13.26,-5.64,76.8
"2016-02-02 01:42:00",1337895,13.98,113.7,6.665,1.238,2.347,97.77672,-6.363,-5.131,93.9,0,109.3,13.26,-5.63,75.7
"2016-02-02 01:42:30",1337896,13.88,113.1,6.969,1.401,2.545,97.77893,-6.357,-5.11,94,0,109.3,13.26,-5.63,75.1
"2016-02-02 01:43:00",1337897,13.77,112.6,7.653,1.299,1.917,97.77672,-6.363,-5.106,94,0,109.3,13.27,-5.63,74.6
"2016-02-02 01:43:30",1337898,13.75,114.5,6.963,1.316,2.407,97.77616,-6.364,-5.124,94,0,109.3,13.26,-5.63,76.5
"2016-02-02 01:44:00",1337899,13.23,116.7,6.998,1.235,2.277,97.77699,-6.362,-5.118,94,0,109.3,13.26,-5.63,78.7
"2016-02-02 01:44:30",1337900,13.79,114.4,6.674,1.505,2.088,97.77367,-6.37,-5.096,94,0,109.3,13.26,-5.64,76.4
"2016-02-02 01:45:00",1337901,13.49,114.9,6.28,1.352,2.389,97.77339,-6.371,-5.123,94,0,109.3,13.26,-5.64,76.9
"2016-02-02 01:45:30",1337902,13.08,111.5,6.499,1.319,2.077,97.77505,-6.367,-5.131,94,0,109.3,13.26,-5.64,73.5
"2016-02-02 01:46:00",1337903,13.5,111.3,7.125,1.409,1.795,97.77477,-6.368,-5.141,94,0,109.3,13.26,-5.64,73.3
"2016-02-02 01:46:30",1337904,12.98,113.4,6.212,1.401,2.036,97.77367,-6.37,-5.121,94,0,109.3,13.25,-5.64,75.4